INMARSAT GX5

Last updated on Sat Apr 13 2024 01:02:39 GMT+0100 (British Summer Time)

1 44801U 19080B 24103.32827296 .00000066 00000+0 00000+0 0 9994 2 44801 0.0527 28.3925 0001705 344.3057 317.4891 1.00269084 16124
UTC large
Height (km)
Speed (km/s)
/
Latitude / Longitude
Inclination (degrees)
Orbital Period (minutes)
Azimuth
Elevation
Range (km)
Doppler Factor

Next 0 passes for location: London (51.5072 / 0.1276)

Sorry there are no passes over London.